Weather observations for the past three days for
Chesterfield County Airport
Imperial (Metric)
Date Time (edt) Wind (mph) Vis. (mi.) Weather Sky Cond. Temperature (ºF) Relative Humidity Wind Chill (°F) Heat Index (°F) Pressure Precipitation (in)
Air Dwpt 6 hour altimeter (in) sea level (mb) 1 hr 3 hr 6 hr
Max. Min.
01 16:56 Vrbl 5 10.00 Fair CLR 93.9 70 46% 100 30 1016.7
01 15:56 W 6 10.00 Fair CLR 96.1 70 43% 103 30.01 1017.0
01 14:56 SW 6 10.00 Fair CLR 95 71.1 46% 102 30.03 1017.6
01 13:56 Calm 10.00 A Few Clouds FEW055 93.9 71.1 95 77 48% 101 30.03 1017.6
01 12:56 W 7 10.00 Fair CLR 93.9 72 49% 102 30.04 1017.9
01 11:56 NW 7 10.00 Fair CLR 93 75 56% 104 30.06 1018.6
01 10:56 Calm 10.00 Fair CLR 88 75 66% 98 30.07 1019.1
01 09:56 W 7 10.00 Fair CLR 86 73.9 67% 94 30.07 1019.2
01 08:56 NW 6 10.00 A Few Clouds FEW110 81 73.9 79% 86 30.07 1019.2
01 07:56 NW 5 10.00 Fair CLR 77 73.9 77 72 90% 78 30.07 1019.2
01 06:56 Calm 10.00 Fair CLR 72 71.1 97% 30.06 1018.7
01 05:56 Calm 10.00 Fair CLR 72 71.1 97% 30.06 1018.7
01 04:56 Calm 10.00 Fair CLR 73 72 96% 30.05 1018.4
01 03:56 Calm 10.00 Fair CLR 73 72 96% 30.06 1018.6
01 02:56 Calm 10.00 Fair CLR 73.9 72 94% 30.07 1019.0
01 01:56 Calm 10.00 Fair CLR 73.9 72 84 73.9 94% 30.08 1019.5
01 00:56 Calm 10.00 Fair CLR 75.9 73 91% 76 30.09 1019.9
31 23:56 S 3 10.00 Fair CLR 77 73 88% 78 30.09 1019.8
31 22:56 SE 3 10.00 Overcast OVC100 78.1 73.9 87% 81 30.09 1019.9
31 21:56 E 3 10.00 Fair CLR 80.1 73.9 82% 85 30.09 1019.9
31 20:56 E 6 10.00 Mostly Cloudy BKN095 84 72 67% 90 30.08 1019.4
31 19:56 Calm 10.00 Fair CLR 84 73 93.9 84 70% 90 30.07 1019.0
31 18:56 Calm 10.00 Fair CLR 89.1 73 59% 97 30.06 1018.8
31 17:56 N 3 10.00 A Few Clouds FEW065 93 70 47% 99 30.06 1018.7
31 16:56 Calm 10.00 Fair CLR 91.9 68 46% 96 30.06 1018.7
31 15:56 W 3 10.00 Fair CLR 93.9 70 46% 100 30.06 1018.8
31 14:56 Vrbl 3 10.00 Fair CLR 93 72 50% 101 30.08 1019.4
31 13:56 Vrbl 6 10.00 Fair CLR 91 72 91.9 75 54% 99 30.09 1019.9
31 12:56 Vrbl 5 10.00 Fair CLR 90 75 62% 100 30.1 1020.1
31 11:56 S 5 10.00 Fair CLR 87.1 73.9 65% 95 0 0.0
31 10:56 Calm 10.00 Fair CLR 84 73 70% 90 0 0.0
31 09:56 NW 8 10.00 Fair CLR 84.9 73.9 70% 92 0 0.0
31 08:56 W 7 10.00 Fair CLR 79 72 79% 82 0 0.0
31 07:56 W 3 10.00 Fair CLR 75 71.1 75 72 88% 75 0 0.0
31 05:56 Calm 10.00 Overcast BKN100 OVC120 73 70 90% 0 0.0
31 04:56 Calm 10.00 Partly Cloudy SCT095 73 70 90% 0 0.0
31 03:56 S 3 10.00 Fair CLR 73 70 90% 0 0.0
31 02:56 S 3 10.00 Overcast OVC110 72 70 94% 0 0.0
31 01:56 Calm 10.00 Fair CLR 73 70 81 73 90% 0 0.0
31 00:56 Calm 10.00 Fair CLR 73.9 70 88% 0 0.0
30 23:56 Calm 10.00 Fair CLR 75 71.1 88% 75 0 0.0
30 22:56 S 3 10.00 Fair CLR 75.9 71.1 85% 76 0 0.0
30 21:56 S 3 10.00 Fair CLR 77 72 85% 78 0 0.0
30 20:56 SE 3 10.00 Fair CLR 77 73.9 90% 78 0 0.0
30 19:56 Calm 10.00 Fair CLR 81 73.9 89.1 81 79% 86 0 0.0
30 18:56 Vrbl 3 10.00 Fair CLR 86 72 63% 92 0 0.0
30 17:56 SW 5 10.00 Fair CLR 87.1 71.1 59% 93 0 0.0
30 16:56 S 7 10.00 Fair CLR 88 71.1 57% 94 0 0.0
30 15:56 S 6 10.00 Fair CLR 88 70 55% 93 0 0.0
30 14:56 Vrbl 5 10.00 Fair CLR 88 71.1 57% 94 0 0.0
30 13:56 SW 5 10.00 A Few Clouds FEW036 87.1 72 87.1 70 61% 94 0 0.0
30 12:56 W 3 10.00 Mostly Cloudy BKN034 86 71.1 61% 92 0 0.0
30 10:56 S 6 10.00 Overcast BKN021 OVC029 80.1 71.1 74% 84 0 0.0
30 09:56 S 6 10.00 Mostly Cloudy BKN010 75 73.9 96% 73 0 0.0
30 08:56 Calm 5.00 Fog/Mist BKN002 BKN014 OVC024 72 72 100% 0 0.0
30 07:56 Calm 0.25 Fog OVC002 70 70 70 66 100% 0 0.0
30 06:56 Calm 0.25 Fog OVC002 68 68 100% 0 0.0
30 05:56 Calm 6.00 Fog/Mist OVC004 66.9 66.9 100% 0 0.0
30 04:56 Calm 1.00 Fog/Mist OVC006 66 66 100% 0 0.0
30 03:56 Calm 3.00 Fog/Mist CLR 66 66 100% 0 0.0
30 02:56 Calm 10.00 Fair CLR 66.9 66 97% 0 0.0
30 01:56 Calm 10.00 A Few Clouds FEW011 68 68 79 68 100% 0 0.0
30 00:56 Calm 10.00 Fair CLR 71.1 70 96% 0 0.0
29 23:56 Calm 10.00 Fair CLR 71.1 70 96% 0 0.0
29 22:56 Calm 10.00 Fair CLR 72 70 94% 0 0.0
29 21:56 E 3 10.00 Fair CLR 75 71.1 88% 75 0 0.0
29 20:56 E 3 10.00 Fair CLR 75 71.1 88% 75 0 0.0
29 19:56 E 5 10.00 Fair CLR 79 71.1 84 79 77% 82 0 0.0
29 18:56 E 7 10.00 Fair CLR 81 71.1 72% 85 0 0.0
29 17:56 E 6 10.00 Partly Cloudy SCT037 82.9 70 65% 87 0 0.0
Date Time (edt) Wind (mph) Vis. (mi.) Weather Sky Cond. Air Dwpt Max. Min. Relative Humidity Wind Chill (°F) Heat Index (°F) altimeter (in) sea level (mb) 1 hr 3 hr 6 hr
6 hour
Temperature (ºF) Pressure Precipitation (in)